This is the latest recevied weather packets stored in our database for station/object KN6WGU. If no packets are shown the sender has not sent any weather packets the latest 1 day(s).
| Time | Temp. | Humidity | Pressure | Rain* | Wind** | Luminosity | Snow |
|---|---|---|---|---|---|---|---|
| 1778007301 | 14.44° C | 91% | 1001.1 hPa | 3.05 mm | 0 m/s | 49 W/m² | - |
| 1778006998 | 14.44° C | 90% | 1001 hPa | 3.05 mm | 0 m/s | 53 W/m² | - |
| 1778006695 | 14.44° C | 88% | 1001.2 hPa | 3.05 mm | 0 m/s | 47 W/m² | - |
| 1778006392 | 14.44° C | 87% | 1001.3 hPa | 1.27 mm | 0 m/s | 32 W/m² | - |
| 1778006089 | 15° C | 84% | 1001.4 hPa | 0 mm | 0 m/s | 38 W/m² | - |
| 1778005785 | 15° C | 82% | 1001.5 hPa | 0 mm | 0 m/s | 24 W/m² | - |
| 1778005482 | 16.11° C | 81% | 1001.1 hPa | 0 mm | 0.45 m/s, 182° | 38 W/m² | - |
| 1778005178 | 16.11° C | 79% | 1001 hPa | 0 mm | 0.45 m/s, 202° | 52 W/m² | - |
| 1778004876 | 16.11° C | 78% | 1000.9 hPa | 0 mm | 0 m/s | 45 W/m² | - |
| 1778004573 | 16.67° C | 77% | 1000.9 hPa | 0 mm | 0.45 m/s, 122° | 54 W/m² | - |
| 1778004269 | 16.67° C | 75% | 1001.1 hPa | 0 mm | 0.45 m/s, 156° | 44 W/m² | - |
| 1778003966 | 16.67° C | 74% | 1001 hPa | 0 mm | 0 m/s | 36 W/m² | - |
| 1778003662 | 16.67° C | 74% | 1000.8 hPa | 0 mm | 0 m/s | 72 W/m² | - |
| 1778003358 | 16.67° C | 74% | 1000.9 hPa | 0 mm | 0.45 m/s, 265° | 70 W/m² | - |
| 1778003057 | 17.22° C | 74% | 1000.8 hPa | 0 mm | 0 m/s | 48 W/m² | - |
| 1778002752 | 17.22° C | 73% | 1001 hPa | 0 mm | 0.89 m/s, 173° | 50 W/m² | - |
| 1778002449 | 17.22° C | 72% | 1000.7 hPa | 0 mm | 0.89 m/s, 167° | 52 W/m² | - |
| 1778002146 | 17.78° C | 72% | 1000.6 hPa | 0 mm | 0.45 m/s, 174° | 72 W/m² | - |
| 1778001844 | 17.78° C | 72% | 1000.8 hPa | 0 mm | 0 m/s | 144 W/m² | - |
| 1778001543 | 17.78° C | 72% | 1000.6 hPa | 0 mm | 0.89 m/s, 159° | 180 W/m² | - |
| 1778001240 | 17.78° C | 73% | 1000.7 hPa | 0 mm | 0.89 m/s, 175° | 225 W/m² | - |
| 1778000937 | 17.22° C | 73% | 1000.6 hPa | 0 mm | 0.45 m/s, 138° | 187 W/m² | - |
| 1778000634 | 17.22° C | 73% | 1000.8 hPa | 0 mm | 0.89 m/s, 151° | 98 W/m² | - |
| 1778000328 | 17.22° C | 73% | 1000.8 hPa | 0 mm | 0.89 m/s, 162° | 80 W/m² | - |
| 1778000025 | 17.22° C | 73% | 1000.8 hPa | 0 mm | 0.45 m/s, 128° | 89 W/m² | - |
* Rain latest hour (hover to see other rain measurements)
** Current wind speed in m/s (hover to see current wind gust speed)